09:07
Airports
History
Links
Donate
Help keep this website running!
PayPal
Bitcoin
This page is community maintained. The information is intended for PC simulator navigation or reference.
Always use approved charts for navigation.
EDWS
Norden Norddeich
Norden Norddeich (EDWS)
Norden, Niedersachsen, Germany (26506)
(C)
Lat/Lng:53° 38' 4.99" N / 7° 11' 25" E
53.63472 / 7.190278
Elevation:3'ft / 1mMSL
ID / ICAO:EDWS
Runways:1
Longest:16-34
Asphalt 724m / 2,376ft
Controlled:Yes
Nearby Weather08:20 GMT 2018-02-18
Nearby weather at ETNT, WITTMUNDHAFEN located 20.5 nautical miles from EDWS
Altimeter: 30.33
Visibility: 3.1 statute miles
Wind: 3 knots (from 180°)
Temp: -1°c / 30°f
Humidity: 100.0%

METAR: ETNT 180820Z 18003KT 5000 BR SCT180 M01/M01 Q1027 WHT

(Powered by phpweather)
Airport Radio Frequencies
Tower: 120.5, 125.1
Nearby VORs <50NM
Nearby NDBs
Runway 16 / 34
Dimensions:724.2 x 20.1m 2376' x 66'ft
Surface:Asphalt
Runway 16 [A]Runway 34 [B]
Heading:159°TH 339°TH
Lat:
Lng:
53° 38' 15.94"N
7° 11' 18.21"E
53° 37' 54.05"N
7° 11' 31.79"E
User Notes and Comments
53° 38' 4.99" N / 7° 11' 25" E
Distance To
Airport ID:
Nearby Airports
(C) Norderney 5.2 NM
EDWY NNE 17°
(C) Juist 6.3 NM
EDWJ WNW 301°
(C) Baltrum 9.7 NM
EDWZ NE 49°
(C) Langeoog 14.7 NM
EDWL ENE 59°
(C) EMDEN 16.9 NM
EDWE S 174°
(C) BORKUM 19.8 NM
EDWR W 261°
(C) WITTMUNDHAFEN 20.5 NM
ETNT ( WX ) ESE 107°
VFR Chart
Flight Planning at SkyVector.com